Home   Weather   Straubing   Past weeks

Flag for Germany Past Weather in Straubing, Bavaria, Germany — Yesterday and Last 2 Weeks

Now
41 °F

Sunny.


Feels Like: 41 °F
Forecast: 25 / 40 °F
Wind: 1 mph from Southeast

Location: Straubing

Current Time: Dec 10, 2016 at 1:50:02 pm

Latest Report: Dec 10, 2016 at 12:00 pm


Visibility: 6 mi

Pressure: 30.37 "Hg

Humidity: 78%

Dew Point: 35 °F

Location of StraubingLocation

Past Weather in Straubing — Graph

°F

Straubing Temperature Yesterday

Maximum temperature yesterday: 35 °F (at 11:00 pm)
Minimum temperature yesterday: 21 °F (at 6:00 am)
Average temperature yesterday: 29 °F

High & Low Weather Summary for the Past Weeks

 TemperatureHumidityPressure
High49 °F (Nov 25, 2:00 pm)100% (Dec 2, 9:00 pm)30.69 "Hg (Dec 2, 9:00 pm)
Low18 °F (Dec 4, 3:00 am)57% (Nov 28, 3:00 pm)30.02 "Hg (Nov 27, 2:00 pm)
Average32 °F91%30.37 "Hg
* Reported Nov 25 12:00 pm — Dec 10 12:00 pm, Straubing, Weather by CustomWeather, © 2016

Note: Actual official high and low records may vary slightly from our data, if they occured in-between our weather recording intervals... More about our weather records

Advertising

Straubing Weather History for the Previous 24 Hours

Scroll right to see more
 ConditionsComfort  
Time TempWeatherWind HumidityBarometerVisibility
12:00 pm
Sat, Dec 10
41 °FSunny.1 mph78%30.37 "Hg6 mi
11:00 am39 °FFog.1 mph83%30.39 "Hg4 mi
9:00 am30 °FSunny.3 mph98%30.42 "Hg1 mi
8:00 am30 °FPassing clouds.2 mph99%30.43 "Hg0 mi
6:00 am32 °FClear.1 mph100%30.42 "Hg1 mi
5:00 am33 °FFog.2 mph99%30.42 "Hg1 mi
3:00 am36 °FFog.No wind96%30.45 "Hg2 mi
2:00 am35 °FFog.1 mph95%30.46 "Hg2 mi
12:00 am34 °FFog.1 mph97%30.50 "Hg2 mi
11:00 pm
Fri, Dec 9
35 °FFog.2 mph94%30.50 "Hg2 mi
9:00 pm33 °FFog.2 mph99%30.53 "Hg1 mi
8:00 pm35 °FFog.1 mph96%30.53 "Hg3 mi
6:00 pm33 °FFog.1 mph99%30.55 "Hg1 mi
5:00 pm33 °FFog.2 mph98%30.54 "Hg1 mi
3:00 pm33 °FOvercast.2 mph99%30.53 "Hg2 mi
2:00 pm32 °FOvercast.1 mph100%30.55 "Hg2 mi
Weather by CustomWeather, © 2016

See weather overviewHow to use our weather pages